SL-8 DEB *

基本信息
目录编号:
18504
目录名称:
SL-8 DEB *
国际标识:
1976-098E
轨道中心:
EARTH
物体状态:
在轨
发射日期:
1976-09-29 UTC
轨道信息
数据来源: 国际轨道数据
星历时间: 2026-09-05T16:12:07+0800
半长轴: 6912.386km
偏心率: 0.0007596
轨道倾角: 74.025°
近地点辐角: 138.546°
升交点赤经: 15.192°
平近点角: 251.810°
近地点: 528.998km
远地点: 539.5km
周期: 95.324分钟
每日圈数: 15.106394
详细信息
发射场:
PKMTR
轨道高度:
LEO
数据来源:
AOE Integration Group
参考系:
TEME
时间系统:
UTC
历元类型:
SGP4
2D轨道图
3D轨道图
轨道高度分析图
轨道倾角分析图
轨道综合分析图
查看轨道综合分析图